Bellefontaine, OH

4:54 PM EST on February 23, 2017 (GMT -0500)
Bellefontaine

Weather History for KEDJ - October, 2013

Change the Weather History Date:

Sunday, October 6, 2013

  Actual Average (KDAY) Record (KDAY)
Temperature  
Mean Temperature 61 °F -  
Max Temperature 71 °F 66 °F 87 °F (1963)
Min Temperature 51 °F 46 °F 27 °F (1980)
Degree Days  
Heating Degree Days 4    
Growing Degree Days 11 (Base 50)    
Moisture  
Dew Point 62 °F    
Average Humidity 97    
Maximum Humidity 100    
Minimum Humidity 78    
Precipitation  
Precipitation 1.19 in - - ()
Sea Level Pressure  
Sea Level Pressure 29.81 in    
Wind  
Wind Speed 10 mph (South)    
Max Wind Speed 17 mph    
Max Gust Speed 26 mph    
Visibility 8 miles    
Events      
Averages and records for this station are not official NWS values.
T = Trace of Precipitation, MM = Missing Value Source: NWS Daily Summary

Daily Weather History Graph

Daily Weather History Graph

Search for Another Location

Airport or City:

Trip Planner

Search our weather history database for the weather conditions in past years. The results will help you decide how hot, cold, wet, or windy it might be!

Date:

Astronomy

Oct. 06, 2013 Rise Set
Actual Time 7:36 AM EDT 7:08 PM EDT
Civil Twilight 7:09 AM EDT 7:36 PM EDT
Nautical Twilight 6:38 AM EDT 8:07 PM EDT
Astronomical Twilight 6:06 AM EDT 8:39 PM EDT
Moon 9:20 AM EDT (10/6) 8:07 PM EDT (10/6)
Length of Visible Light 12h 26m
Length of Day
11h 31m
Waxing Crescent, 3% of the Moon is Illuminated
Oct 6
Waxing Crescent
Oct 11
First Quarter
Oct 18
Full
Oct 26
Last Quarter
Nov 3
New

Hourly Weather History & Observations

Time (EDT) Temp. Dew Point Humidity Pressure Visibility Wind Dir Wind Speed Gust Speed Precip Events Conditions
12:10 AM 68.0 °F 68.0 °F 100% 29.90 in 10.0 mi South 9.2 mph - 0.00 in   Scattered Clouds
12:30 AM 68.0 °F 68.0 °F 100% 29.91 in 9.0 mi South 11.5 mph - 0.00 in   Overcast
12:50 AM 66.2 °F 66.2 °F 100% 29.92 in 9.0 mi South 10.4 mph - 0.01 in   Mostly Cloudy
1:10 AM 66.2 °F 66.2 °F 100% 29.93 in 7.0 mi South 10.4 mph 18.4 mph 0.00 in   Mostly Cloudy
1:30 AM 66.2 °F 66.2 °F 100% 29.92 in 8.0 mi South 13.8 mph - 0.00 in   Scattered Clouds
1:50 AM 66.2 °F 66.2 °F 100% 29.92 in 8.0 mi South 11.5 mph 16.1 mph 0.00 in   Clear
2:10 AM 66.2 °F 66.2 °F 100% 29.92 in 7.0 mi South 11.5 mph - 0.01 in   Scattered Clouds
2:30 AM 66.2 °F 66.2 °F 100% 29.92 in 5.0 mi South 8.1 mph - 0.04 in   Mostly Cloudy
2:50 AM 66.2 °F 66.2 °F 100% 29.91 in 5.0 mi SSE 9.2 mph - 0.07 in   Overcast
3:10 AM 64.4 °F 64.4 °F 100% 29.91 in 5.0 mi South 9.2 mph - 0.02 in   Overcast
3:30 AM 64.4 °F 64.4 °F 100% 29.90 in 5.0 mi South 8.1 mph - 0.05 in   Overcast
3:50 AM 64.4 °F 64.4 °F 100% 29.88 in 5.0 mi South 6.9 mph - 0.07 in   Mostly Cloudy
4:10 AM 64.4 °F 64.4 °F 100% 29.87 in 10.0 mi South 6.9 mph - 0.00 in   Partly Cloudy
4:30 AM 64.4 °F 64.4 °F 100% 29.85 in 8.0 mi SSE 4.6 mph - 0.01 in   Partly Cloudy
4:50 AM 64.4 °F 64.4 °F 100% 29.84 in 10.0 mi SSE 3.5 mph - 0.01 in   Scattered Clouds
5:10 AM 64.4 °F 64.4 °F 100% 29.85 in 10.0 mi South 5.8 mph - 0.01 in   Mostly Cloudy
5:30 AM 64.4 °F 64.4 °F 100% 29.86 in 8.0 mi SSW 3.5 mph - 0.01 in   Overcast
5:50 AM 64.4 °F 64.4 °F 100% 29.86 in 5.0 mi SSE 3.5 mph - 0.02 in   Overcast
6:10 AM 64.4 °F 64.4 °F 100% 29.88 in 8.0 mi WSW 8.1 mph - 0.00 in   Overcast
6:30 AM 64.4 °F 64.4 °F 100% 29.87 in 2.0 mi WSW 10.4 mph - 0.21 in   Overcast
6:50 AM 64.4 °F 64.4 °F 100% 29.87 in 7.0 mi SW 5.8 mph - 0.24 in   Mostly Cloudy
7:10 AM 62.6 °F 62.6 °F 100% 29.88 in 7.0 mi South 5.8 mph - 0.00 in   Mostly Cloudy
7:30 AM 62.6 °F 62.6 °F 100% 29.86 in 10.0 mi SSE 5.8 mph - 0.01 in   Partly Cloudy
7:50 AM 62.6 °F 62.6 °F 100% 29.86 in 10.0 mi SSE 9.2 mph - 0.01 in   Clear
8:10 AM 64.4 °F 64.4 °F 100% 29.85 in 10.0 mi SSE 11.5 mph 16.1 mph 0.00 in   Partly Cloudy
8:30 AM 64.4 °F 64.4 °F 100% 29.85 in 10.0 mi South 9.2 mph 16.1 mph 0.00 in   Mostly Cloudy
8:50 AM 64.4 °F 64.4 °F 100% 29.84 in 9.0 mi South 6.9 mph - 0.01 in   Overcast
9:10 AM 62.6 °F 62.6 °F 100% 29.85 in 4.0 mi SSE 10.4 mph - 0.01 in   Overcast
9:30 AM 62.6 °F 62.6 °F 100% 29.85 in 10.0 mi South 8.1 mph - 0.01 in   Overcast
9:50 AM 62.6 °F 62.6 °F 100% 29.85 in 2.0 mi SSE 11.5 mph - 0.07 in   Overcast
10:10 AM 62.6 °F 62.6 °F 100% 29.84 in 10.0 mi South 13.8 mph 17.3 mph 0.01 in   Mostly Cloudy
10:30 AM 62.6 °F 62.6 °F 100% 29.84 in 8.0 mi SSE 13.8 mph - 0.01 in   Partly Cloudy
10:50 AM 64.4 °F 64.4 °F 100% 29.84 in 10.0 mi SSE 11.5 mph 17.3 mph 0.01 in   Clear
11:10 AM 64.4 °F 64.4 °F 100% 29.83 in 10.0 mi SSE 11.5 mph 18.4 mph 0.00 in   Partly Cloudy
11:30 AM 64.4 °F 64.4 °F 100% 29.82 in 10.0 mi South 10.4 mph - 0.00 in   Clear
11:50 AM 64.4 °F 64.4 °F 100% 29.82 in 10.0 mi South 11.5 mph - 0.00 in   Clear
12:10 PM 66.2 °F 64.4 °F 94% 29.81 in 9.0 mi SSE 15.0 mph - 0.00 in   Partly Cloudy
12:30 PM 64.4 °F 64.4 °F 100% 29.81 in 10.0 mi SSE 11.5 mph 17.3 mph 0.00 in   Partly Cloudy
12:50 PM 66.2 °F 66.2 °F 100% 29.79 in 10.0 mi SSE 10.4 mph - 0.00 in   Clear
1:10 PM 66.2 °F 66.2 °F 100% 29.78 in 10.0 mi SSE 15.0 mph - 0.01 in   Partly Cloudy
1:30 PM 66.2 °F 66.2 °F 100% 29.76 in 10.0 mi SSE 12.7 mph 21.9 mph 0.01 in   Partly Cloudy
1:50 PM 68.0 °F 66.2 °F 94% 29.75 in 10.0 mi South 15.0 mph 21.9 mph 0.01 in   Partly Cloudy
2:10 PM 69.8 °F 66.2 °F 88% 29.74 in 10.0 mi South 13.8 mph 18.4 mph 0.00 in   Clear
2:30 PM 69.8 °F 64.4 °F 83% 29.73 in 10.0 mi South 17.3 mph 24.2 mph 0.00 in   Partly Cloudy
2:50 PM 71.6 °F 64.4 °F 78% 29.72 in 10.0 mi South 17.3 mph 23.0 mph 0.00 in   Scattered Clouds
3:10 PM 71.6 °F 64.4 °F 78% 29.71 in 10.0 mi South 13.8 mph 21.9 mph 0.00 in   Mostly Cloudy
3:30 PM 71.6 °F 64.4 °F 78% 29.71 in 10.0 mi South 11.5 mph 26.5 mph 0.00 in   Overcast
3:50 PM 69.8 °F 64.4 °F 83% 29.71 in 10.0 mi South 15.0 mph 21.9 mph 0.00 in   Overcast
4:10 PM 69.8 °F 64.4 °F 83% 29.70 in 10.0 mi South 15.0 mph 24.2 mph 0.00 in   Overcast
4:30 PM 69.8 °F 66.2 °F 88% 29.69 in 2.5 mi South 10.4 mph 16.1 mph 0.05 in   Overcast
4:50 PM 66.2 °F 66.2 °F 100% 29.71 in 0.5 mi SW 15.0 mph 23.0 mph 0.49 in   Overcast
5:10 PM 62.6 °F 62.6 °F 100% 29.72 in 3.0 mi West 13.8 mph 19.6 mph 0.01 in   Overcast
5:30 PM 60.8 °F 60.8 °F 100% 29.73 in 3.0 mi WSW 8.1 mph - 0.04 in   Mostly Cloudy
5:50 PM 60.8 °F 60.8 °F 100% 29.73 in 10.0 mi WSW 9.2 mph - 0.04 in   Overcast
6:10 PM 60.8 °F 60.8 °F 100% 29.73 in 10.0 mi WSW 8.1 mph - 0.00 in   Overcast
6:30 PM 60.8 °F 60.8 °F 100% 29.73 in 10.0 mi WSW 10.4 mph - 0.00 in   Overcast
6:50 PM 59.0 °F 59.0 °F 100% 29.75 in 3.0 mi SW 10.4 mph - 0.01 in   Overcast
7:10 PM 57.2 °F 57.2 °F 100% 29.76 in 10.0 mi SW 10.4 mph - 0.00 in   Overcast
7:30 PM 57.2 °F 55.4 °F 94% 29.76 in 10.0 mi SW 5.8 mph - 0.00 in   Overcast
7:50 PM 55.4 °F 51.8 °F 88% 29.76 in 10.0 mi WSW 9.2 mph - 0.00 in   Overcast
8:10 PM 55.4 °F 51.8 °F 88% 29.77 in 5.0 mi WSW 10.4 mph - 0.01 in   Mostly Cloudy
8:30 PM 53.6 °F 50.0 °F 88% 29.80 in 5.0 mi SSW 11.5 mph - 0.03 in   Mostly Cloudy
8:50 PM 53.6 °F 50.0 °F 88% 29.78 in 5.0 mi South 6.9 mph - 0.07 in   Mostly Cloudy
9:10 PM 53.6 °F 51.8 °F 94% 29.78 in 6.0 mi SSW 5.8 mph - 0.02 in   Overcast
9:30 PM 53.6 °F 53.6 °F 100% 29.79 in 4.0 mi SSW 5.8 mph - 0.05 in   Overcast
9:50 PM 51.8 °F 51.8 °F 100% 29.79 in 7.0 mi South 6.9 mph - 0.06 in   Mostly Cloudy
10:10 PM 51.8 °F 51.8 °F 100% 29.78 in 10.0 mi South 5.8 mph - 0.00 in   Scattered Clouds
10:30 PM 51.8 °F 51.8 °F 100% 29.79 in 10.0 mi South 8.1 mph - 0.00 in   Mostly Cloudy
10:50 PM 51.8 °F 51.8 °F 100% 29.78 in 10.0 mi South 6.9 mph - 0.00 in   Scattered Clouds
11:10 PM 51.8 °F 51.8 °F 100% 29.79 in 10.0 mi South 8.1 mph - 0.00 in   Mostly Cloudy
11:30 PM 51.8 °F 51.8 °F 100% 29.78 in 10.0 mi SSW 6.9 mph - 0.00 in   Mostly Cloudy
11:50 PM 51.8 °F 51.8 °F 100% 29.78 in 9.0 mi SSW 6.9 mph - 0.00 in   Mostly Cloudy